Statia Express — V7TT3 — position and weather

sailwx.info

Track history (hours):
 
Tides and Currents Weather Stations Pressure Air Temp Water Temp Dewpoint Dewpoint Depression Visibility Wind Speed Wind Dir Waves Ship Positions

Statia Express

Last reported at 2015-Jan-30 22:29 UTC. Time now 2015-Feb-02 01:47 UTC.
Position N 17°42' W 063°03'.

Length 28 m; draft 4.1 m.

Type: Tug. MMSI: 538003879.

Date/timePositionNaut miles runAvg speedWind from/ knotsBaromVisibWave heightAir tempDewpointWater temp
2015-Jan-30 22:29N 17°42' W 063°03'6 6.5
2015-Jan-30 21:33N 17°48' W 063°04'7 6.5
2015-Jan-30 20:32N 17°54' W 063°04'5 5.5
2015-Jan-30 19:33N 17°60' W 063°04'1 1.2
2015-Jan-30 18:19N 18°01' W 063°03'1 0.2
2015-Jan-30 15:28N 18°00' W 063°03'1 0.1
2015-Jan-30 11:32N 18°01' W 063°03'0 0.0
2015-Jan-30 10:12N 18°01' W 063°03'0 0.0
2015-Jan-30 09:23N 18°01' W 063°03'0 0.0
2015-Jan-30 08:29N 18°01' W 063°03'0 0.0
2015-Jan-30 07:25N 18°01' W 063°03'0 0.0
2015-Jan-30 06:27N 18°01' W 063°03'0 0.0
2015-Jan-30 05:15N 18°01' W 063°03'0 0.0
2015-Jan-30 02:17N 18°01' W 063°03'0 0.0
2015-Jan-30 01:21N 18°01' W 063°03'0 0.0
2015-Jan-30 00:09N 18°01' W 063°03'0 0.0
2015-Jan-29 23:13N 18°01' W 063°03'0 0.0
2015-Jan-29 22:25N 18°01' W 063°03'0 0.0
2015-Jan-29 21:33N 18°01' W 063°03'0 0.0
2015-Jan-29 20:33N 18°01' W 063°03'0 0.0
2015-Jan-29 13:16N 18°00' W 063°03'0 0.1
2015-Jan-29 12:31N 18°00' W 063°03'0 0.2
2015-Jan-29 10:06N 18°01' W 063°03'4 7.0
2015-Jan-29 09:30N 17°57' W 063°04'9 9.8
2015-Jan-29 08:33N 17°48' W 063°04'1 0.1
2015-Jan-29 01:26N 17°48' W 063°04'6 6.9
2015-Jan-29 00:32N 17°54' W 063°04'6 5.4
2015-Jan-28 23:28N 18°00' W 063°04'1 1.0
2015-Jan-28 22:12N 18°01' W 063°03'0 0.0
2015-Jan-28 21:27N 18°01' W 063°03'0 0.0
2015-Jan-28 19:13N 18°01' W 063°03'0 0.2
2015-Jan-28 17:21N 18°01' W 063°03'0 0.0
2015-Jan-28 11:24N 18°01' W 063°03'0 0.0
2015-Jan-28 03:24N 18°01' W 063°03'0 0.0
2015-Jan-28 01:09N 18°01' W 063°03'0 0.0
2015-Jan-28 00:11N 18°01' W 063°03'0 0.1
2015-Jan-27 22:05N 18°01' W 063°03'0 0.1
2015-Jan-27 20:28N 18°01' W 063°03'0 0.1
2015-Jan-27 17:14N 18°00' W 063°03'0 0.1
2015-Jan-27 14:09N 18°01' W 063°03'0 0.0
2015-Jan-27 05:31N 18°01' W 063°03'0 0.0
2015-Jan-27 04:27N 18°01' W 063°03'1 0.1
2015-Jan-26 22:11N 18°01' W 063°03'0 0.0
2015-Jan-26 17:27N 18°00' W 063°03'0 0.5
2015-Jan-26 16:27N 18°01' W 063°03'0 0.0
2015-Jan-26 14:21N 18°01' W 063°03'0 0.0
2015-Jan-26 10:17N 18°01' W 063°03'0 0.0
2015-Jan-26 08:23N 18°01' W 063°03'0 0.0
2015-Jan-26 06:25N 18°01' W 063°03'0 0.0
2015-Jan-26 05:27N 18°01' W 063°03'0 0.0
2015-Jan-26 02:20N 18°01' W 063°03'0 0.0
2015-Jan-26 00:27N 18°01' W 063°03'0 0.1
2015-Jan-25 15:31N 18°00' W 063°03'0 0.1
2015-Jan-25 13:33N 18°00' W 063°03'0 0.0
2015-Jan-25 12:11N 18°00' W 063°03'1 0.7
2015-Jan-25 11:18N 18°01' W 063°03'0 0.0
2015-Jan-25 10:29N 18°01' W 063°03'0 0.0
2015-Jan-25 09:29N 18°01' W 063°03'3 0.5
2015-Jan-25 04:12N 17°59' W 063°05'4 6.0
2015-Jan-25 03:33N 17°55' W 063°05'6 6.3
2015-Jan-25 02:33N 17°49' W 063°04'  
Track history (hours):
 
Tides and Currents Weather Stations Pressure Air Temp Water Temp Dewpoint Dewpoint Depression Visibility Wind Speed Wind Dir Waves Ship Positions

Statia Express

Last reported at 2015-Jan-30 22:29 UTC. Time now 2015-Feb-02 01:47 UTC.
Position N 17°42' W 063°03'.

Length 28 m; draft 4.1 m.

Type: Tug. MMSI: 538003879.

Date/timePositionNaut miles runAvg speedWind from/ knotsBaromVisibWave heightAir tempDewpointWater temp
2015-Jan-30 22:29N 17°42' W 063°03'6 6.5
2015-Jan-30 21:33N 17°48' W 063°04'7 6.5
2015-Jan-30 20:32N 17°54' W 063°04'5 5.5
2015-Jan-30 19:33N 17°60' W 063°04'1 1.2
2015-Jan-30 18:19N 18°01' W 063°03'1 0.2
2015-Jan-30 15:28N 18°00' W 063°03'1 0.1
2015-Jan-30 11:32N 18°01' W 063°03'0 0.0
2015-Jan-30 10:12N 18°01' W 063°03'0 0.0
2015-Jan-30 09:23N 18°01' W 063°03'0 0.0
2015-Jan-30 08:29N 18°01' W 063°03'0 0.0
2015-Jan-30 07:25N 18°01' W 063°03'0 0.0
2015-Jan-30 06:27N 18°01' W 063°03'0 0.0
2015-Jan-30 05:15N 18°01' W 063°03'0 0.0
2015-Jan-30 02:17N 18°01' W 063°03'0 0.0
2015-Jan-30 01:21N 18°01' W 063°03'0 0.0
2015-Jan-30 00:09N 18°01' W 063°03'0 0.0
2015-Jan-29 23:13N 18°01' W 063°03'0 0.0
2015-Jan-29 22:25N 18°01' W 063°03'0 0.0
2015-Jan-29 21:33N 18°01' W 063°03'0 0.0
2015-Jan-29 20:33N 18°01' W 063°03'0 0.0
2015-Jan-29 13:16N 18°00' W 063°03'0 0.1
2015-Jan-29 12:31N 18°00' W 063°03'0 0.2
2015-Jan-29 10:06N 18°01' W 063°03'4 7.0
2015-Jan-29 09:30N 17°57' W 063°04'9 9.8
2015-Jan-29 08:33N 17°48' W 063°04'1 0.1
2015-Jan-29 01:26N 17°48' W 063°04'6 6.9
2015-Jan-29 00:32N 17°54' W 063°04'6 5.4
2015-Jan-28 23:28N 18°00' W 063°04'1 1.0
2015-Jan-28 22:12N 18°01' W 063°03'0 0.0
2015-Jan-28 21:27N 18°01' W 063°03'0 0.0
2015-Jan-28 19:13N 18°01' W 063°03'0 0.2
2015-Jan-28 17:21N 18°01' W 063°03'0 0.0
2015-Jan-28 11:24N 18°01' W 063°03'0 0.0
2015-Jan-28 03:24N 18°01' W 063°03'0 0.0
2015-Jan-28 01:09N 18°01' W 063°03'0 0.0
2015-Jan-28 00:11N 18°01' W 063°03'0 0.1
2015-Jan-27 22:05N 18°01' W 063°03'0 0.1
2015-Jan-27 20:28N 18°01' W 063°03'0 0.1
2015-Jan-27 17:14N 18°00' W 063°03'0 0.1
2015-Jan-27 14:09N 18°01' W 063°03'0 0.0
2015-Jan-27 05:31N 18°01' W 063°03'0 0.0
2015-Jan-27 04:27N 18°01' W 063°03'1 0.1
2015-Jan-26 22:11N 18°01' W 063°03'0 0.0
2015-Jan-26 17:27N 18°00' W 063°03'0 0.5
2015-Jan-26 16:27N 18°01' W 063°03'0 0.0
2015-Jan-26 14:21N 18°01' W 063°03'0 0.0
2015-Jan-26 10:17N 18°01' W 063°03'0 0.0
2015-Jan-26 08:23N 18°01' W 063°03'0 0.0
2015-Jan-26 06:25N 18°01' W 063°03'0 0.0
2015-Jan-26 05:27N 18°01' W 063°03'0 0.0
2015-Jan-26 02:20N 18°01' W 063°03'0 0.0
2015-Jan-26 00:27N 18°01' W 063°03'0 0.1
2015-Jan-25 15:31N 18°00' W 063°03'0 0.1
2015-Jan-25 13:33N 18°00' W 063°03'0 0.0
2015-Jan-25 12:11N 18°00' W 063°03'1 0.7
2015-Jan-25 11:18N 18°01' W 063°03'0 0.0
2015-Jan-25 10:29N 18°01' W 063°03'0 0.0
2015-Jan-25 09:29N 18°01' W 063°03'3 0.5
2015-Jan-25 04:12N 17°59' W 063°05'4 6.0
2015-Jan-25 03:33N 17°55' W 063°05'6 6.3
2015-Jan-25 02:33N 17°49' W 063°04'  

Dump ship's entire track history